スコッティ彗星

431P/Scotti (2002)

English version
Home page
Updated on October 6, 2021

---------------------------------------------------------------------

・ プロフィール

・ 軌道要素

Epoch 2002 Oct. 13.0 TT = JDT 2452560.5                                         
T 2002 Oct. 8.14196 TT                                  Rudenko                 
q   1.9503653            (2000.0)            P               Q                  
n   0.14916463     Peri.  195.15346     +0.76508332     -0.62026134             
a   3.5212117      Node   205.76028     +0.62441917     +0.78025832             
e   0.4461096      Incl.   23.45468     +0.15731564     -0.08045388             
P   6.61                                                                        
From 372 observations 2002 Nov. 16-2016 Mar. 2, mean residual 0".8.             

・ 光度変化

        m1 = 15.5 + 5 logΔ + 10.0 log r

---------------------------------------------------------------------

軌道要素はM.P.E.C. 2021-R75に掲載されたものです。
光度グラフはComet for Windowsで作成したものです。

---------------------------------------------------------------------

Copyright(C) Seiichi Yoshida (comet@aerith.net). All rights reserved.